• In Romania
  • List of Countries
  • For 7 days
  • Water Temperature
  • Satellite Maps
  • Weather Map
  • Weather Widgets
  • user-avatar
    Login

    Hourly Weather Kalgoorlie

    Today, 22 May, Tuesday

    Time Temperature Precipitation Wind Pressure Humidity
    00:00 +14°C° 0 mm 4 mps 738 mmHg 51%
    01:00 +13°C° 0 mm 4 mps 738 mmHg 53%
    02:00 +13°C° 0 mm 4 mps 738 mmHg 54%
    03:00 +13°C° 0 mm 4 mps 738 mmHg 55%
    04:00 +12°C° 0 mm 4 mps 738 mmHg 57%
    05:00 +12°C° 0 mm 4 mps 738 mmHg 58%
    06:00 +12°C° 0 mm 4 mps 738 mmHg 56%
    07:00 +13°C° 0 mm 5 mps 738 mmHg 53%
    08:00 +14°C° 0 mm 5 mps 738 mmHg 51%
    09:00 +16°C° 0 mm 5 mps 738 mmHg 44%
    10:00 +19°C° 0 mm 5 mps 738 mmHg 37%
    11:00 +21°C° 0 mm 5 mps 738 mmHg 30%
    12:00 +22°C° 0 mm 5 mps 737 mmHg 28%
    13:00 +22°C° 0 mm 4 mps 737 mmHg 26%
    14:00 +23°C° 0 mm 4 mps 736 mmHg 23%
    15:00 +22°C° 0 mm 3 mps 736 mmHg 25%
    16:00 +21°C° 0 mm 3 mps 736 mmHg 26%
    17:00 +20°C° 0 mm 3 mps 736 mmHg 27%
    18:00 +19°C° 0 mm 3 mps 736 mmHg 28%
    19:00 +18°C° 0 mm 3 mps 736 mmHg 30%
    20:00 +18°C° 0 mm 3 mps 736 mmHg 31%
    21:00 +17°C° 0 mm 4 mps 736 mmHg 33%
    22:00 +15°C° 0 mm 4 mps 736 mmHg 35%
    23:00 +15°C° 0 mm 4 mps 736 mmHg 36%

    Tomorrow, 23 May, Wednesday

    Time Temperature Precipitation Wind Pressure Humidity
    00:00 +14°C° 0 mm 4 mps 736 mmHg 37%
    01:00 +14°C° 0 mm 4 mps 736 mmHg 39%
    02:00 +14°C° 0 mm 3 mps 736 mmHg 40%
    03:00 +13°C° 0 mm 3 mps 736 mmHg 41%
    04:00 +13°C° 0 mm 3 mps 736 mmHg 42%
    05:00 +12°C° 0 mm 3 mps 735 mmHg 42%
    06:00 +13°C° 0 mm 3 mps 736 mmHg 40%
    07:00 +14°C° 0 mm 4 mps 736 mmHg 38%
    08:00 +14°C° 0 mm 4 mps 736 mmHg 36%
    09:00 +18°C° 0 mm 4 mps 736 mmHg 31%
    10:00 +20°C° 0 mm 4 mps 736 mmHg 26%
    11:00 +22°C° 0 mm 5 mps 736 mmHg 21%
    12:00 +23°C° 0 mm 4 mps 735 mmHg 20%
    13:00 +23°C° 0 mm 4 mps 734 mmHg 19%
    14:00 +25°C° 0 mm 3 mps 733 mmHg 18%
    15:00 +24°C° 0 mm 3 mps 733 mmHg 19%
    16:00 +22°C° 0 mm 3 mps 733 mmHg 20%
    17:00 +21°C° 0 mm 2 mps 733 mmHg 22%
    18:00 +20°C° 0 mm 2 mps 734 mmHg 22%
    19:00 +19°C° 0 mm 3 mps 734 mmHg 23%
    20:00 +18°C° 0 mm 3 mps 734 mmHg 24%
    21:00 +18°C° 0 mm 3 mps 734 mmHg 24%
    22:00 +17°C° 0 mm 4 mps 734 mmHg 25%
    23:00 +17°C° 0 mm 4 mps 734 mmHg 26%

    Day after tomorrow, 24 May, Thursday

    Time Temperature Precipitation Wind Pressure Humidity
    00:00 +15°C° 0 mm 4 mps 733 mmHg 28%
    01:00 +15°C° 0 mm 4 mps 733 mmHg 29%
    02:00 +14°C° 0 mm 4 mps 733 mmHg 31%
    03:00 +14°C° 0 mm 4 mps 732 mmHg 32%
    04:00 +14°C° 0 mm 4 mps 732 mmHg 34%
    05:00 +13°C° 0 mm 4 mps 732 mmHg 35%
    06:00 +14°C° 0 mm 5 mps 732 mmHg 34%
    07:00 +15°C° 0 mm 5 mps 732 mmHg 34%
    08:00 +15°C° 0 mm 6 mps 732 mmHg 34%
    09:00 +18°C° 0 mm 7 mps 732 mmHg 30%
    10:00 +21°C° 0 mm 8 mps 732 mmHg 26%
    11:00 +23°C° 0 mm 9 mps 731 mmHg 22%
    12:00 +24°C° 0 mm 9 mps 730 mmHg 21%
    13:00 +26°C° 0 mm 9 mps 730 mmHg 20%
    14:00 +26°C° 0 mm 9 mps 729 mmHg 19%
    15:00 +24°C° 0 mm 8 mps 728 mmHg 20%
    16:00 +24°C° 0 mm 7 mps 728 mmHg 21%
    17:00 +23°C° 0 mm 6 mps 727 mmHg 22%
    18:00 +22°C° 0 mm 7 mps 727 mmHg 23%
    19:00 +22°C° 0 mm 7 mps 727 mmHg 23%
    20:00 +21°C° 0 mm 8 mps 727 mmHg 24%
    21:00 +21°C° 0 mm 9 mps 726 mmHg 24%
    22:00 +21°C° 0 mm 10 mps 726 mmHg 23%
    23:00 +21°C° 0 mm 11 mps 725 mmHg 23%

    25 May, Friday

    Time Temperature Precipitation Wind Pressure Humidity
    00:00 +21°C° 0 mm 12 mps 724 mmHg 23%
    01:00 +20°C° 0 mm 13 mps 723 mmHg 23%
    02:00 +22°C° 0 mm 13 mps 722 mmHg 23%
    03:00 +20°C° 0 mm 14 mps 722 mmHg 26%
    04:00 +20°C° 0 mm 14 mps 722 mmHg 28%
    05:00 +20°C° 0 mm 15 mps 722 mmHg 30%
    06:00 +19°C° 0.6 mm 13 mps 723 mmHg 42%
    07:00 +18°C° 0.6 mm 12 mps 723 mmHg 54%
    08:00 +17°C° 0.6 mm 11 mps 724 mmHg 67%
    09:00 +17°C° 0 mm 11 mps 724 mmHg 59%
    10:00 +18°C° 0 mm 12 mps 724 mmHg 51%
    11:00 +18°C° 0 mm 13 mps 725 mmHg 44%
    12:00 +18°C° 0 mm 12 mps 724 mmHg 44%
    13:00 +17°C° 0 mm 12 mps 724 mmHg 44%
    14:00 +17°C° 0 mm 11 mps 724 mmHg 44%
    15:00 +17°C° 0 mm 11 mps 724 mmHg 44%
    16:00 +17°C° 0 mm 10 mps 725 mmHg 44%
    17:00 +16°C° 0 mm 9 mps 725 mmHg 44%
    18:00 +16°C° 0 mm 8 mps 726 mmHg 47%
    19:00 +15°C° 0 mm 7 mps 726 mmHg 50%
    20:00 +14°C° 0 mm 6 mps 726 mmHg 52%
    21:00 +14°C° 0 mm 6 mps 726 mmHg 54%
    22:00 +12°C° 0 mm 7 mps 726 mmHg 55%
    23:00 +12°C° 0 mm 7 mps 726 mmHg 57%

    26 May, Saturday

    Time Temperature Precipitation Wind Pressure Humidity
    00:00 +12°C° 0 mm 8 mps 726 mmHg 58%
    01:00 +12°C° 0 mm 8 mps 726 mmHg 60%
    02:00 +12°C° 0 mm 9 mps 726 mmHg 62%
    03:00 +12°C° 0 mm 9 mps 727 mmHg 65%
    04:00 +12°C° 0 mm 8 mps 727 mmHg 68%
    05:00 +12°C° 0 mm 8 mps 727 mmHg 70%
    06:00 +12°C° 0 mm 8 mps 728 mmHg 67%
    07:00 +12°C° 0 mm 7 mps 729 mmHg 64%
    08:00 +12°C° 0 mm 7 mps 729 mmHg 61%
    09:00 +14°C° 0 mm 7 mps 730 mmHg 55%
    10:00 +15°C° 0 mm 8 mps 730 mmHg 50%
    11:00 +16°C° 0 mm 8 mps 730 mmHg 45%
    12:00 +16°C° 0 mm 8 mps 730 mmHg 43%
    13:00 +17°C° 0 mm 7 mps 730 mmHg 40%
    14:00 +18°C° 0 mm 7 mps 730 mmHg 38%
    15:00 +17°C° 0 mm 6 mps 730 mmHg 41%
    16:00 +16°C° 0 mm 6 mps 730 mmHg 45%
    17:00 +15°C° 0 mm 6 mps 731 mmHg 48%
    18:00 +15°C° 0 mm 5 mps 731 mmHg 51%
    19:00 +14°C° 0 mm 4 mps 732 mmHg 55%
    20:00 +13°C° 0 mm 3 mps 732 mmHg 58%
    21:00 +13°C° 0 mm 3 mps 732 mmHg 60%
    22:00 +12°C° 0 mm 3 mps 733 mmHg 61%
    23:00 +13°C° 0 mm 2 mps 733 mmHg 63%

    27 May, Sunday

    Time Temperature Precipitation Wind Pressure Humidity
    00:00 +12°C° 0 mm 3 mps 733 mmHg 64%
    01:00 +11°C° 0 mm 3 mps 733 mmHg 66%
    02:00 +11°C° 0 mm 3 mps 733 mmHg 67%
    03:00 +11°C° 0 mm 3 mps 733 mmHg 71%
    04:00 +11°C° 0 mm 3 mps 733 mmHg 74%
    05:00 +11°C° 0 mm 3 mps 733 mmHg 77%
    06:00 +11°C° 0 mm 3 mps 734 mmHg 76%
    07:00 +12°C° 0 mm 3 mps 734 mmHg 76%
    08:00 +12°C° 0 mm 4 mps 734 mmHg 76%
    09:00 +14°C° 0 mm 4 mps 734 mmHg 68%
    10:00 +17°C° 0 mm 4 mps 734 mmHg 60%
    11:00 +19°C° 0 mm 4 mps 734 mmHg 53%
    12:00 +20°C° 0 mm 4 mps 734 mmHg 49%
    13:00 +20°C° 0 mm 4 mps 733 mmHg 46%
    14:00 +21°C° 0 mm 3 mps 733 mmHg 42%
    15:00 +21°C° 0 mm 3 mps 733 mmHg 44%
    16:00 +20°C° 0 mm 3 mps 733 mmHg 46%
    17:00 +19°C° 0 mm 2 mps 733 mmHg 47%
    18:00 +19°C° 0 mm 2 mps 734 mmHg 50%
    19:00 +18°C° 0 mm 2 mps 734 mmHg 53%
    20:00 +17°C° 0 mm 2 mps 734 mmHg 55%
    21:00 +17°C° 0 mm 2 mps 734 mmHg 58%
    22:00 +16°C° 0 mm 2 mps 734 mmHg 61%
    23:00 +16°C° 0 mm 2 mps 734 mmHg 63%
    Show more